SCP
0 0 0 0 0 0 0 0 0 0 0 0 0 0 0 0 0 0 0 0 0 0 0 0 0 0 0 0 0 0 0 0 0 0 0 0 0 0 0 0 0 0 0 0 0 0 0 0 0
0 0 0 0 0 0 0 0 0 0 0 0 0 0 0 0 0 0 0 0 0 0 0 0 0 0 0 0 0 0 0 0 0 0 0 0 0 0 0 0 0 0 0 0 0 0 0 0 0
0 0 0 0 0 0 0 0 0 0 0 0 0 0 0 0 0 0 0 0 0 0 0 0 0 0 0 0 0 0 0 0 0 0 0 0 0 0 0 0 0 0 0 0 0 0 0 0 0
0 0 0 0 0 0 0 0 0 0 0 0 0 0 0 0 0 0 0 0 0 0 0 0 0 0 0 0 0 0 0 0 0 0 0 0 0 0 0 0 0 0 0 0 0 0 0 0 0
0 0 0 0 0 0 0 0 0 0 0 0 0 0 0 0 0 0 0 0 0 0 0 0 0 0 0 0 0 0 0 0 0 0 0 0 0 0 0 0 0 0 0 0 0 0 0 0 0
0 0 0 0 0 0 0 0 0 0 0 0 0 0 0 0 0 0 0 0 0 0 0 0 0 0 0 0 0 0 0 0 0 0 0 0 0 0 0 0 0 0 0 0 0 0 0 0 0
0 0 0 0 0 0 0 0 0 0 0 0 0 0 0 0 0 0 0 0 0 0 0 0 0 0 0 0 0 0 0 0 0 0 0 0 0 0 0 0 0 0 0 0 0 0 0 0 0
0 0 0 0 0 0 0 0 0 0 0 0 0 0 0 0 0 0 0 0 0 0 0 0 0 0 0 0 0 0 0 0 0 0 0 0 0 0 0 0 0 0 0 0 0 0 0 0 0
0 0 0 0 0 0 0 0 0 0 0 0 0 0 0 0 0 0 0 0 0 0 0 0 0 0 0 0 0 0 0 0 0 0 0 0 0 0 0 0 0 0 0 0 0 0 0 0 0
0 0 0 0 0 0 0 0 0 0 0 0 0 0 0 0 0 0 0 0 0 0 0 0 0 0 0 0 0 0 0 0 0 0 0 0 0 0 0 0 0 0 0 0 0 0 0 0 0
0 0 0 0 0 0 0 0 0 0 0 0 0 0 0 0 0 0 0 0 0 0 0 0 0 0 0 0 0 0 0 0 0 0 0 0 0 0 0 0 0 0 0 0 0 0 0 0 0
0 0 0 0 0 0 0 0 0 0 0 0 0 0 0 0 0 0 0 0 0 0 0 0 0 0 0 0 0 0 0 0 0 0 0 0 0 0 0 0 0 0 0 0 0 0 0 0 0
0 0 0 0 0 0 0 0 0 0 0 0 0 0 0 0 0 0 0 0 0 0 0 0 0 0 0 0 0 0 0 0 0 0 0 0 0 0 0 0 0 0 0 0 0 0 0 0 0
0 0 0 0 0 0 0 0 0 0 0 0 0 0 0 0 0 0 0 0 0 0 0 0 0 0 0 0 0 0 0 0 0 0 0 0 0 0 0 0 0 0 0 0 0 0 0 0 0
0 0 0 0 0 0 0 0 0 0 0 0 0 0 0 0 0 0 0 0 0 0 0 0 0 0 0 0 0 0 0 0 0 0 0 0 0 0 0 0 0 0 0 0 0 0 0 0 0
0 0 0 0 0 0 0 0 0 0 0 0 0 0 0 0 0 0 0 0 0 0 0 0 0 0 0 0 0 0 0 0 0 0 0 0 0 0 0 0 0 0 0 0 0 0 0 0 0
0 0 0 0 0 0 0 0 0 0 0 0 0 0 0 0 0 0 0 0 0 0 0 0 0 0 0 0 0 0 0 0 0 0 0 0 0 0 0 0 0 0 0 0 0 0 0 0 0
0 0 0 0 0 0 0 0 0 0 0 0 0 0 0 0 0 0 0 0 0 0 0 0 0 0 0 0 0 0 0 0 0 0 0 0 0 0 0 0 0 0 0 0 0 0 0 0 0
0 0 0 0 0 0 0 0 0 0 0 0 0 0 0 0 0 0 0 0 0 0 0 0 0 0 0 0 0 0 0 0 0 0 0 0 0 0 0 0 0 0 0 0 0 0 0 0 0
0 0 0 0 0 0 0 0 0 0 0 0 0 0 0 0 0 0 0 0 0 0 0 0 0 0 0 0 0 0 0 0 0 0 0 0 0 0 0 0 0 0 0 0 0 0 0 0 0
0 0 0 0 0 0 0 0 0 0 0 0 0 0 0 0 0 0 0 0 0 0 0 0 0 0 0 0 0 0 0 0 0 0 0 0 0 0 0 0 0 0 0 0 0 0 0 0 0
0 0 0 0 0 0 0 0 0 0 0 0 0 0 0 0 0 0 0 0 0 0 0 0 0 0 0 0 0 0 0 0 0 0 0 0 0 0 0 0 0 0 0 0 0 0 0 0 0
0 0 0 0 0 0 0 0 0 0 0 0 0 0 0 0 0 0 0 0 0 0 0 0 0 0 0 0 0 0 0 0 0 0 0 0 0 0 0 0 0 0 0 0 0 0 0 0 0
0 0 0 0 0 0 0 0 0 0 0 0 0 0 0 0 0 0 0 0 0 0 0 0 0 0 0 0 0 0 0 0 0 0 0 0 0 0 0 0 0 0 0 0 0 0 0 0 0
0 0 0 0 0 0 0 0 0 0 0 0 0 0 0 0 0 0 0 0 0 0 0 0 0 0 0 0 0 0 0 0 0 0 0 0 0 0 0 0 0 0 0 0 0 0 0 0 0
0 0 0 0 0 0 0 0 0 0 0 0 0 0 0 0 0 0 0 0 0 0 0 0 0 0 0 0 0 0 0 0 0 0 0 0 0 0 0 0 0 0 0 0 0 0 0 0 0
0 0 0 0 0 0 0 0 0 0 0 0 0 0 0 0 0 0 0 0 0 0 0 0 0 0 0 0 0 0 0 0 0 0 0 0 0 0 0 0 0 0 0 0 0 0 0 0 0
0 0 0 0 0 0 0 0 0 0 0 0 0 0 0 0 0 0 0 0 0 0 0 0 0 0 0 0 0 0 0 0 0 0 0 0 0 0 0 0 0 0 0 0 0 0 0 0 0
0 0 0 0 0 0 0 0 0 0 0 0 0 0 0 0 0 0 0 0 0 0 0 0 0 0 0 0 0 0 0 0 0 0 0 0 0 0 0 0 0 0 0 0 0 0 0 0 0
0 0 0 0 0 0 0 0 0 0 0 0 0 0 0 0 0 0 0 0 0 0 0 0 0 0 0 0 0 0 0 0 0 0 0 0 0 0 0 0 0 0 0 0 0 0 0 0 0
Wind_Speed
6 7 5 2 2 1 2 5 6 5 6 7 7 7 10 11 8 7 2 4 6 7 8 8 8 8 8 8 8 8 9 8 8 9 9 9 10 9 9 9 10 10 10 9 10 10 10 10 9
7 5 3 2 2 0 4 5 7 7 6 5 6 8 10 10 9 7 3 4 6 8 8 8 8 8 8 8 8 8 8 9 9 9 9 9 9 9 10 9 10 10 10 10 10 10 10 10 10
8 6 3 2 1 3 5 6 7 7 6 5 6 9 8 6 7 5 3 4 7 9 9 8 9 8 8 8 9 9 9 9 9 9 9 9 9 9 9 9 10 10 10 10 10 10 10 10 9
5 3 2 1 3 6 5 6 5 6 5 5 6 8 8 7 5 5 5 5 7 8 9 8 9 9 9 9 9 9 9 9 9 9 9 9 9 9 9 10 9 10 10 10 10 9 10 9 9
3 2 1 1 3 5 6 7 6 5 5 6 7 8 8 7 8 7 5 5 7 8 8 9 9 10 10 10 9 9 9 9 9 9 9 9 9 9 9 9 9 9 9 10 9 9 9 9 9
2 2 1 1 4 4 5 5 5 6 6 5 7 8 7 6 6 5 5 4 7 8 9 9 10 10 10 10 10 9 9 9 9 8 8 8 8 9 9 9 9 9 9 10 10 9 9 9 8
2 1 1 2 3 3 4 5 5 5 6 5 4 6 7 6 5 4 5 5 6 6 7 7 7 8 10 10 9 9 8 8 8 7 7 7 7 8 8 8 8 9 9 9 9 9 9 8 8
2 1 1 1 2 3 4 4 4 5 5 5 4 5 6 6 5 4 5 5 5 5 5 6 6 7 7 7 8 8 7 7 6 6 5 5 6 6 7 7 8 8 9 8 8 7 7 7 6
2 1 0 1 2 4 4 4 4 5 6 6 7 8 9 9 7 6 4 4 4 4 4 4 4 5 5 6 8 6 6 5 5 4 4 2 2 3 4 7 8 8 8 7 6 5 5 4 3
1 1 2 2 3 4 4 4 3 3 5 6 8 10 10 8 7 6 5 5 5 4 4 4 4 4 4 4 5 2 3 3 2 2 2 1 2 3 5 6 7 6 6 5 4 2 2 0 0
1 1 2 3 4 4 3 3 3 2 3 4 6 9 8 7 5 4 5 5 5 4 4 4 4 5 4 3 3 2 1 1 2 3 3 2 2 2 2 2 2 2 3 1 1 0 1 2 2
1 2 2 2 3 3 2 3 3 3 4 4 7 9 8 6 5 3 4 5 5 5 4 4 4 4 5 4 3 2 1 2 2 2 3 2 2 2 2 2 1 1 1 2 2 2 4 4 4
2 2 2 2 2 1 2 2 2 3 4 5 8 9 8 6 5 3 4 5 5 4 3 3 3 4 4 4 2 3 3 3 3 2 2 3 2 2 2 2 2 2 2 2 2 3 4 4 5
2 3 3 2 2 2 2 1 1 2 4 5 6 7 7 5 4 4 4 5 4 4 3 3 2 4 4 4 2 3 3 2 2 2 2 3 2 2 2 3 3 3 2 2 2 3 3 3 3
4 3 2 3 3 3 2 2 3 4 5 6 6 6 6 6 5 4 4 4 4 4 3 4 3 3 4 4 3 3 2 2 2 2 2 3 3 3 3 3 3 2 2 3 3 3 3 3 3
6 5 4 5 5 5 4 3 3 5 7 6 6 6 6 5 5 4 4 4 4 4 3 4 3 3 4 4 3 2 2 2 2 2 2 2 2 4 3 2 2 2 3 2 2 2 3 3 3
7 6 5 4 6 5 5 3 4 6 6 7 7 7 6 6 5 4 4 4 4 4 4 4 3 3 4 4 2 2 2 2 2 2 2 2 3 4 3 2 2 3 2 2 2 2 2 2 2
4 5 4 4 6 6 5 4 4 7 7 6 7 7 7 7 6 5 5 4 3 3 4 4 4 3 3 3 2 2 2 1 2 2 2 2 2 3 3 2 3 2 2 2 2 2 2 1 1
4 5 4 3 3 4 5 5 5 7 7 7 7 7 7 7 7 6 5 5 4 4 4 5 4 3 2 2 1 1 1 1 1 1 2 2 1 2 3 2 2 2 2 1 1 1 2 1 1
6 5 4 3 2 4 5 5 6 7 7 6 7 7 8 7 8 7 5 4 4 4 3 4 3 3 3 2 2 1 1 1 1 1 1 1 1 2 2 2 2 1 1 1 1 1 1 1 0
5 6 5 4 4 6 5 5 6 7 8 7 6 6 6 7 7 8 7 6 4 3 4 4 4 3 3 3 2 1 1 1 1 1 1 1 1 1 2 2 2 1 1 1 1 1 1 0 1
5 6 5 5 5 5 6 4 5 7 8 9 8 7 6 6 6 7 6 5 5 3 3 4 3 3 3 3 2 2 2 1 2 2 2 2 1 1 1 1 2 2 2 2 1 1 1 1 1
5 5 6 8 7 8 8 6 3 7 8 9 9 8 8 7 7 7 7 6 5 4 3 3 3 3 3 3 3 2 1 1 1 2 2 2 2 2 2 2 2 1 1 2 2 1 1 1 1
5 7 8 8 6 7 8 7 3 4 6 8 8 8 8 8 7 7 7 6 5 5 4 2 3 3 2 2 3 2 1 1 1 1 1 1 1 1 1 1 1 1 1 1 1 1 2 1 1
6 5 3 4 5 5 4 3 2 3 3 5 7 8 8 8 8 7 7 6 6 5 5 4 3 3 3 3 2 2 2 1 2 1 1 1 1 1 2 1 1 1 2 2 1 1 2 2 2
6 6 4 4 4 2 2 2 3 5 4 4 5 6 7 7 7 7 7 6 6 6 5 5 4 3 3 3 2 2 2 1 1 1 1 1 1 2 2 2 2 1 1 2 2 1 2 2 2
6 5 6 7 9 6 2 1 4 5 6 5 5 5 5 6 6 6 6 7 6 6 6 5 5 4 3 3 2 2 3 2 1 1 1 1 1 2 3 3 2 1 1 1 2 2 2 2 1
7 5 4 4 4 4 3 2 2 4 6 5 4 5 4 5 6 6 6 6 6 5 5 5 5 5 4 3 2 2 2 2 2 1 1 1 1 1 2 2 2 2 2 1 1 2 2 2 1
7 7 5 4 4 4 3 1 2 3 3 3 3 3 5 5 5 6 6 6 6 5 5 5 5 4 3 3 3 2 2 2 2 1 1 1 0 0 1 2 1 2 2 2 2 2 3 2 2
7 6 5 4 4 4 3 1 1 3 3 3 3 3 3 3 3 4 6 6 5 5 5 5 5 4 4 3 3 2 2 2 2 2 2 2 1 1 1 1 1 2 2 2 2 1 2 2 2
Wind_Direction
234 231 231 253 259 227 57 58 65 59 50 50 49 53 61 52 46 80 114 79 91 100 103 92 78 72 75 77 79 78 74 71 72 75 76 76 75 72 73 74 73 69 67 66 65 63 61 60 58
256 238 249 248 251 133 68 67 70 61 62 58 56 55 67 66 70 89 91 80 96 98 97 89 84 78 77 82 84 81 77 73 74 74 74 76 77 74 71 73 71 69 66 65 66 64 60 60 58
258 255 252 247 318 57 72 66 78 71 56 52 68 58 52 60 65 84 102 102 90 91 91 92 88 82 81 86 87 83 80 78 79 75 74 76 76 75 72 70 70 68 66 66 67 65 63 61 57
251 248 245 252 59 59 72 85 88 82 63 52 69 77 72 54 69 96 107 101 95 96 99 100 94 91 88 87 88 85 83 83 82 78 75 74 74 75 74 71 70 69 67 69 69 68 65 63 59
248 253 239 160 80 73 66 72 79 74 62 60 71 86 85 66 79 94 95 94 102 101 105 107 103 99 95 91 87 83 82 80 78 77 75 75 75 76 74 72 72 71 70 70 68 69 67 63 57
264 255 230 104 83 73 68 66 74 79 75 70 83 95 97 92 82 91 98 98 101 109 110 111 110 105 98 93 87 85 85 83 81 80 78 78 80 81 78 75 75 74 72 71 68 69 68 64 58
267 286 274 101 95 80 78 63 59 71 64 52 53 94 108 99 85 85 89 86 93 105 115 122 127 118 108 101 95 92 91 90 89 89 89 89 88 86 82 77 77 76 75 74 71 70 70 68 59
270 279 299 65 91 79 83 80 67 63 65 56 42 91 116 120 119 103 92 88 90 100 109 125 135 134 131 121 111 110 107 105 103 101 101 103 103 100 93 85 81 81 80 80 78 76 72 66 54
258 253 331 56 76 95 105 91 78 79 83 74 63 75 109 124 127 114 106 103 98 95 103 107 110 113 123 131 127 133 130 131 129 132 139 138 133 122 104 93 93 93 92 91 90 85 79 74 55
179 73 37 47 85 100 98 85 94 99 95 91 87 95 110 129 132 133 138 129 120 112 114 109 107 107 107 105 120 140 131 136 152 120 118 116 92 90 103 108 106 110 110 104 97 86 73 81 78
126 109 60 50 70 82 101 85 80 85 82 100 118 121 124 133 129 135 133 123 114 112 107 116 115 115 107 92 102 84 85 107 96 86 87 80 83 99 105 117 127 140 143 129 101 86 62 62 60
131 83 83 79 73 81 102 90 70 56 68 86 115 122 131 137 130 124 115 111 113 114 110 109 116 116 116 107 103 112 95 74 68 62 75 68 59 59 59 71 74 94 89 67 55 49 52 49 56
157 134 111 94 99 98 100 106 94 80 99 107 115 125 134 137 133 129 118 114 119 120 121 117 119 114 107 101 111 104 82 63 67 43 60 80 72 67 64 69 48 52 55 59 44 53 52 47 47
133 134 149 165 168 164 149 143 141 141 137 130 129 133 137 138 144 145 135 127 124 130 128 116 110 106 107 115 116 93 89 93 77 47 32 68 78 73 67 58 55 48 40 39 49 56 54 55 52
166 178 196 203 202 189 197 221 193 167 152 146 148 148 147 151 159 159 139 132 135 130 126 125 118 109 103 99 87 91 93 91 86 61 29 55 76 82 80 62 56 53 42 36 46 51 48 54 52
208 209 219 212 204 201 220 238 184 162 162 161 163 160 156 154 163 155 143 136 136 133 130 118 119 105 94 94 97 95 91 82 82 78 40 33 63 79 80 74 63 63 59 44 39 56 54 52 42
225 228 218 202 206 204 216 231 178 175 177 173 173 169 167 163 170 160 146 140 140 142 138 131 122 108 101 98 105 99 99 92 84 80 56 29 53 71 78 70 69 61 60 46 32 46 60 64 57
241 242 235 212 195 207 217 221 187 186 185 183 179 176 177 170 170 159 147 151 144 142 137 134 123 120 116 112 105 86 79 85 84 85 81 51 49 75 84 79 82 70 69 56 45 47 56 75 55
277 279 284 263 175 208 228 222 202 199 194 189 186 184 180 171 164 158 159 157 155 154 145 133 135 148 138 119 115 119 114 101 83 95 96 81 74 92 96 81 76 76 77 67 66 60 47 56 85
264 265 268 265 213 242 246 242 214 199 199 195 193 188 178 169 161 159 164 158 168 154 148 142 150 152 143 135 143 141 122 128 119 101 110 115 93 94 114 122 111 106 105 76 63 71 40 331 358
266 266 261 253 241 251 251 255 221 201 191 192 192 191 178 171 169 163 165 165 167 162 160 160 162 152 148 147 143 122 107 105 134 154 130 126 123 110 111 126 132 146 157 172 166 160 127 281 312
263 276 275 268 257 254 239 261 218 193 192 189 191 188 181 175 167 161 161 163 162 167 161 159 155 151 151 148 144 148 156 181 185 156 152 162 152 133 141 148 162 180 176 176 203 165 170 169 271
281 284 279 267 263 266 253 251 216 179 193 191 188 186 180 179 169 164 164 167 161 156 153 158 149 138 136 138 146 161 165 172 140 131 153 169 164 164 179 182 202 196 184 185 185 171 192 186 187
270 264 262 259 260 261 247 234 217 194 194 181 181 180 177 175 166 163 160 161 159 152 152 153 149 139 135 134 130 149 158 130 125 136 157 169 153 179 201 189 204 205 197 201 194 189 196 202 191
246 256 258 235 221 239 233 217 171 149 153 161 172 175 173 168 169 166 163 164 159 153 154 163 155 150 149 151 157 165 159 168 181 182 185 180 172 194 217 199 221 207 194 199 185 213 209 206 203
238 245 259 283 287 278 216 199 136 129 119 129 149 156 163 170 171 166 163 164 160 162 165 169 165 163 154 160 175 172 158 167 173 191 182 195 192 193 197 206 224 197 186 207 182 219 226 223 217
252 252 269 282 288 287 250 129 137 138 134 135 140 148 161 169 165 162 166 165 164 168 167 170 167 167 169 177 187 171 172 168 175 174 207 213 208 199 190 190 196 179 176 214 192 218 226 231 230
250 266 266 262 289 284 264 215 177 149 152 154 157 158 159 157 162 166 171 164 164 166 166 170 175 179 175 176 187 177 176 164 165 175 216 256 246 192 177 188 187 175 184 201 191 226 241 228 229
224 242 256 270 272 286 299 358 61 128 126 126 119 134 150 161 167 162 156 160 161 159 165 174 178 177 177 184 186 183 173 169 167 170 190 210 233 185 194 200 197 193 199 190 182 227 224 226 223
242 248 257 260 278 282 288 310 81 97 97 100 93 87 100 119 141 152 152 154 159 164 169 175 179 179 178 182 183 185 170 172 187 195 203 205 206 200 223 208 211 221 211 197 176 216 236 230 232